Location: Caltech
(34.1382°N, 118.1253°W)
Time: 07:05:50
(UTC-07:00)

CZ-4B DEB - Visible Passes

Search period start: 19 April 2015 00:00
Search period end: 29 April 2015 00:00
Orbit: 842 x 864 km, 98.9° (Epoch: 18 April)

Date Brightness Start Highest point End Pass type
(mag) Time Alt. Az. Time Alt. Az. Time Alt. Az.
19 Apr 6.1 03:27:13 10° NE 03:31:29 24° E 03:34:01 18° SE visible
19 Apr 4.8 05:07:21 10° N 05:12:20 37° WNW 05:16:04 16° SW visible
20 Apr 6.4 03:16:35 10° NE 03:20:12 19° E 03:22:49 14° SE visible
20 Apr 4.5 04:56:01 10° N 05:01:14 47° WNW 05:04:53 19° SW visible
21 Apr 6.7 03:06:14 10° ENE 03:08:53 14° E 03:11:38 11° ESE visible
21 Apr 4.2 04:44:44 10° N 04:50:07 60° WNW 04:53:41 21° SSW visible
22 Apr 6.9 02:56:47 10° E 02:57:32 10° E 02:58:45 10° ESE visible
22 Apr 4.1 04:33:31 10° N 04:38:59 77° WNW 04:42:29 23° SSW visible
23 Apr 4.2 04:22:20 10° NNE 04:27:49 84° ESE 04:31:17 24° S visible
24 Apr 4.5 04:11:14 10° NNE 04:16:39 66° E 04:20:05 23° S visible
25 Apr 4.9 04:00:10 10° NNE 04:05:28 51° E 04:08:52 22° SSE visible
25 Apr 5.7 05:42:08 10° NNW 05:45:52 18° WNW 05:49:22 10° WSW visible
26 Apr 5.3 03:49:11 10° NNE 03:54:15 39° E 03:57:39 19° SSE visible
26 Apr 5.4 05:30:30 10° NNW 05:34:47 23° WNW 05:38:55 10° WSW visible
27 Apr 5.7 03:38:16 10° NE 03:43:01 31° E 03:46:26 17° SSE visible
27 Apr 5.2 05:19:00 10° N 05:23:42 29° WNW 05:28:17 10° SW visible
28 Apr 6.1 03:27:27 10° NE 03:31:44 24° E 03:35:13 14° SE visible
28 Apr 4.8 05:07:35 10° N 05:12:36 37° WNW 05:17:17 11° SW visible
